Vorticity
3 6 9 7 6 6 5 5 5 5 5 6 6 6 6 7 8 7 8 9 9 9 10 10 10 12 12 11 9 10 11 8 5 5 6 6 6 6 8 8 7 7 7
-1 9 7 7 6 6 6 5 5 5 5 5 6 6 7 7 8 9 9 9 10 10 11 11 11 10 9 8 6 5 6 6 5 5 7 8 9 7 6 7 6 8 8
6 6 7 6 6 6 6 5 5 5 5 6 6 6 6 7 8 8 7 6 6 6 6 7 7 6 6 6 6 6 5 6 9 9 9 6 6 5 6 6 5 5 6
3 7 6 7 7 7 6 5 6 5 5 5 6 5 5 6 7 7 7 6 6 6 6 6 6 6 7 8 9 8 8 7 6 6 6 6 5 6 5 5 5 5 5
3 4 4 6 8 8 7 6 6 5 5 6 5 5 5 6 6 5 6 7 7 8 8 8 7 7 7 6 6 6 6 6 6 6 6 6 5 5 4 4 5 6 3
2 3 4 5 7 10 9 8 7 7 7 7 7 6 7 7 6 5 5 5 5 5 5 5 5 5 6 5 5 5 4 4 2 2 2 2 3 3 3 3 4 4 4
1 2 3 2 3 7 10 12 10 9 8 8 8 8 8 7 7 7 7 7 7 6 6 5 3 2 2 3 4 5 5 6 6 5 6 5 5 5 6 6 6 5 5
0 3 3 2 2 2 4 4 7 10 10 9 9 8 8 8 7 7 7 7 6 6 6 7 7 7 7 7 7 6 6 7 6 6 5 5 6 7 6 6 7 8 7
0 0 2 2 2 2 3 2 3 4 4 7 10 10 7 8 8 9 9 9 9 8 7 8 8 8 7 6 5 5 5 4 3 3 3 4 4 3 5 6 6 8 8
2 -0 1 2 2 1 2 1 -0 0 -2 0 1 0 1 9 10 5 2 1 -1 0 2 0 1 2 3 4 4 4 4 4 4 4 4 4 3 3 4 3 4 6 9
3 2 0 0 1 1 2 0 0 -1 0 1 1 -0 3 2 1 -1 0 1 1 2 2 1 2 0 -1 -1 -1 -1 0 1 3 3 4 4 4 4 4 4 3 3 6
4 4 1 1 0 1 1 2 2 0 -1 1 0 -0 1 1 -1 -2 -2 -3 -1 0 -0 0 2 1 1 1 2 2 2 1 1 1 2 3 3 4 4 4 4 3 3
12 6 4 1 1 1 1 2 2 0 -1 1 0 1 0 -0 -0 -1 0 1 1 1 2 2 2 2 3 4 4 4 4 4 4 4 3 3 4 4 4 4 4 4 4
6 9 8 4 2 1 2 2 2 2 -0 -1 -1 1 1 -0 0 0 1 2 2 3 3 3 4 4 4 4 3 4 5 5 4 5 5 4 4 5 5 5 5 4 4
5 8 12 8 5 3 2 2 2 2 1 0 0 0 0 1 1 2 2 3 3 4 4 4 4 4 4 4 5 5 6 6 6 6 5 6 6 5 5 5 5 4 4
3 4 5 12 10 6 4 2 2 3 1 1 1 1 1 2 2 3 3 3 3 4 5 6 5 5 5 6 5 7 5 6 6 6 6 7 6 6 6 6 6 6 6
4 7 5 5 14 9 6 4 3 3 3 1 2 2 3 3 3 4 5 5 6 7 7 6 5 5 6 5 7 5 5 6 6 6 6 7 7 7 7 7 7 8 9
9 5 9 11 12 12 8 6 6 6 3 4 3 3 3 5 7 7 8 9 8 7 6 5 5 7 7 4 3 4 5 5 5 4 3 8 6 5 6 6 6 7 7
8 9 6 9 10 12 11 10 10 7 5 6 6 8 8 10 11 9 8 7 7 7 5 6 7 6 3 3 4 3 4 5 4 4 3 6 5 6 4 5 6 5 5
7 12 2 4 8 22 11 12 12 12 11 8 8 12 12 9 7 6 6 5 5 6 7 6 4 4 3 4 4 3 4 5 4 5 4 7 5 5 1 5 7 6 6
13 9 4 5 3 5 8 19 20 19 19 17 13 9 7 6 6 6 6 6 6 5 3 3 4 4 2 4 3 3 4 4 5 6 5 3 6 4 7 14 7 4 4
4 16 6 3 1 1 4 3 5 4 2 5 4 4 4 5 7 6 7 5 5 4 3 3 5 5 4 5 2 2 4 3 6 7 4 6 12 12 18 16 9 7 7
4 6 9 8 3 7 1 3 10 8 -2 -2 3 6 1 4 2 0 -0 1 2 2 3 4 5 4 4 3 5 4 5 3 5 6 11 15 12 9 14 9 6 9 5
2 1 25 3 8 53 -17 -5 6 0 2 2 4 -1 1 2 2 5 5 5 4 1 2 7 4 3 3 5 2 4 4 4 7 7 7 10 5 6 18 12 10 11 10
13 10 -9 6 7 -1 21 26 -6 7 7 13 10 9 8 9 6 5 4 4 2 4 9 9 6 4 5 5 4 3 7 10 10 12 10 2 5 11 8 10 9 10 8
-3 18 33 -8 2 1 -1 8 6 12 11 10 9 8 7 7 8 8 8 8 7 6 6 4 3 3 3 3 6 10 9 10 10 9 7 11 10 9 10 7 8 9 10
Height
3186 3187 3188 3188 3189 3190 3191 3191 3192 3193 3193 3193 3193 3193 3193 3192 3192 3192 3192 3192 3192 3193 3193 3193 3192 3192 3192 3192 3191 3191 3190 3190 3190 3189 3189 3188 3188 3187 3186 3185 3185 3183 3183
3187 3187 3188 3189 3190 3191 3191 3192 3193 3193 3194 3194 3194 3194 3194 3194 3193 3193 3193 3193 3194 3193 3193 3193 3193 3193 3193 3193 3192 3192 3191 3191 3190 3190 3189 3189 3188 3188 3187 3187 3186 3185 3185
3187 3187 3188 3189 3190 3191 3192 3192 3193 3194 3195 3195 3196 3196 3196 3195 3195 3195 3195 3195 3195 3195 3194 3194 3194 3195 3194 3194 3194 3193 3193 3192 3192 3191 3191 3191 3190 3190 3189 3189 3188 3187 3186
3187 3188 3189 3190 3190 3192 3193 3193 3194 3195 3196 3197 3197 3197 3197 3197 3197 3196 3197 3196 3197 3196 3196 3196 3196 3196 3196 3196 3195 3195 3194 3194 3194 3193 3193 3192 3192 3191 3191 3190 3189 3188 3187
3186 3188 3190 3191 3192 3192 3193 3194 3195 3196 3197 3198 3198 3198 3198 3199 3199 3198 3198 3199 3199 3199 3199 3199 3198 3198 3198 3198 3197 3196 3196 3196 3196 3195 3195 3194 3193 3192 3192 3191 3190 3190 3188
3185 3188 3190 3191 3192 3193 3194 3195 3196 3197 3198 3198 3199 3199 3200 3200 3200 3200 3200 3201 3201 3201 3201 3201 3200 3200 3200 3199 3199 3199 3199 3198 3198 3197 3196 3195 3194 3193 3193 3192 3191 3190 3189
3184 3187 3190 3192 3193 3195 3196 3197 3198 3198 3199 3200 3200 3201 3201 3201 3201 3202 3202 3203 3203 3203 3202 3202 3202 3202 3202 3202 3201 3201 3200 3200 3199 3198 3197 3196 3195 3194 3193 3192 3191 3190 3189
3182 3186 3189 3191 3194 3196 3198 3199 3200 3200 3200 3201 3202 3202 3202 3203 3203 3204 3204 3204 3204 3205 3204 3204 3204 3203 3203 3203 3203 3202 3202 3201 3200 3200 3199 3198 3197 3196 3195 3194 3192 3191 3190
3181 3184 3187 3189 3192 3195 3198 3200 3202 3202 3203 3203 3204 3204 3204 3205 3206 3206 3206 3206 3206 3206 3206 3206 3206 3206 3205 3205 3204 3204 3204 3203 3202 3201 3200 3199 3198 3197 3196 3194 3193 3191 3190
3180 3183 3186 3188 3191 3194 3197 3199 3202 3203 3204 3204 3205 3206 3206 3207 3207 3208 3207 3207 3208 3208 3208 3208 3208 3207 3207 3206 3206 3205 3205 3204 3203 3202 3201 3200 3198 3197 3196 3194 3193 3191 3190
3177 3181 3184 3187 3189 3192 3195 3198 3200 3202 3204 3205 3205 3206 3207 3208 3208 3208 3209 3209 3209 3209 3209 3209 3209 3208 3207 3207 3207 3206 3205 3205 3204 3203 3201 3200 3199 3197 3196 3194 3193 3191 3190
3174 3178 3182 3186 3188 3190 3192 3196 3199 3201 3203 3205 3206 3206 3207 3208 3209 3209 3209 3209 3210 3210 3210 3209 3209 3208 3208 3207 3207 3206 3205 3205 3204 3202 3201 3200 3198 3197 3195 3194 3192 3191 3189
3172 3176 3180 3183 3186 3189 3190 3193 3197 3199 3201 3203 3205 3206 3207 3208 3208 3209 3209 3209 3209 3209 3209 3209 3208 3208 3208 3207 3206 3205 3205 3204 3203 3201 3200 3199 3198 3196 3194 3193 3191 3189 3188
3169 3173 3177 3180 3184 3187 3189 3191 3194 3197 3199 3201 3203 3204 3205 3206 3207 3207 3208 3207 3207 3207 3207 3207 3207 3207 3206 3206 3205 3204 3203 3202 3201 3199 3199 3197 3196 3194 3192 3191 3189 3187 3186
3164 3169 3173 3177 3180 3184 3187 3189 3191 3194 3197 3198 3200 3202 3203 3204 3205 3205 3205 3205 3205 3205 3205 3205 3205 3205 3204 3204 3203 3202 3202 3201 3199 3197 3196 3195 3193 3192 3190 3188 3187 3185 3184
3162 3164 3168 3172 3176 3180 3183 3186 3188 3190 3193 3195 3197 3199 3201 3202 3202 3202 3202 3202 3203 3203 3203 3203 3203 3202 3202 3202 3201 3200 3199 3198 3197 3195 3194 3192 3190 3189 3187 3185 3184 3182 3181
3159 3161 3163 3167 3171 3175 3178 3181 3184 3186 3188 3191 3193 3195 3197 3198 3199 3199 3199 3199 3200 3199 3200 3200 3200 3200 3199 3199 3199 3198 3197 3195 3194 3192 3191 3189 3187 3185 3183 3181 3180 3178 3177
3154 3157 3159 3162 3166 3169 3173 3176 3179 3182 3184 3187 3189 3191 3193 3194 3195 3195 3195 3195 3196 3196 3197 3197 3197 3197 3197 3196 3196 3195 3194 3192 3191 3189 3188 3186 3184 3182 3180 3178 3176 3174 3173
3150 3153 3155 3158 3161 3165 3168 3171 3174 3177 3180 3183 3185 3187 3188 3189 3190 3191 3191 3192 3193 3193 3193 3194 3193 3193 3193 3193 3192 3191 3190 3189 3188 3186 3185 3183 3181 3179 3177 3175 3172 3171 3169
3146 3148 3152 3154 3157 3160 3162 3165 3168 3171 3175 3178 3181 3183 3184 3185 3187 3187 3187 3188 3189 3190 3190 3189 3189 3189 3189 3189 3188 3188 3187 3186 3184 3183 3181 3179 3177 3175 3173 3170 3168 3166 3164
3141 3146 3148 3150 3152 3155 3158 3161 3164 3168 3172 3175 3177 3179 3180 3182 3183 3183 3183 3184 3185 3186 3186 3185 3185 3185 3185 3184 3183 3183 3182 3181 3180 3179 3177 3175 3172 3170 3167 3164 3163 3161 3159
3137 3140 3143 3146 3149 3150 3153 3157 3160 3162 3166 3171 3172 3174 3176 3177 3178 3179 3180 3180 3180 3181 3181 3181 3180 3180 3180 3179 3178 3177 3176 3177 3175 3174 3171 3169 3166 3163 3161 3158 3157 3155 3153
3131 3133 3138 3142 3145 3148 3147 3151 3156 3158 3163 3165 3168 3170 3171 3173 3173 3174 3174 3174 3174 3175 3176 3175 3175 3174 3174 3173 3172 3170 3169 3168 3168 3165 3164 3163 3160 3157 3154 3153 3151 3150 3148
3126 3129 3131 3136 3137 3140 3144 3145 3149 3153 3156 3159 3159 3164 3166 3167 3168 3168 3168 3168 3169 3169 3169 3169 3168 3168 3167 3167 3166 3165 3163 3161 3159 3155 3154 3155 3153 3151 3149 3147 3145 3143 3141
3122 3125 3128 3131 3132 3136 3138 3143 3143 3149 3151 3154 3155 3157 3159 3161 3161 3161 3161 3162 3162 3162 3163 3162 3162 3161 3160 3160 3159 3157 3157 3154 3152 3149 3145 3146 3146 3144 3143 3141 3139 3137 3135
3115 3118 3123 3126 3129 3133 3135 3139 3142 3144 3147 3149 3150 3151 3153 3153 3153 3154 3154 3155 3155 3155 3155 3155 3155 3154 3153 3152 3151 3149 3148 3146 3145 3143 3141 3139 3137 3136 3136 3134 3133 3130 3128